Hourly Data Report for February 22, 2013

BAGOTVILLE A
QUEBEC

48°20'00.000" N
71°00'00.000" W
159.10 m
7060400
71727
YBG

Download Data

Hourly Data (February 2013)
Hourly Data Report for February 22, 2013
TIME
LST
Temp Definition
°C
Dew Point Definition
°C
Rel Hum Definition
%
Precip. Amount Definition
mm

Wind Dir Definition
10's deg

Wind Spd Definition
km/h
Visibility Definition
km
Stn Press Definition
kPa
Hmdx Definition


Wind Chill Definition


Weather Definition


00:00 -5.3 -9.3 73   9 6 24.1 100.68   -8 Mainly Clear
01:00 -7.0 -9.3 84   30 4 24.1 100.79   -9 Mainly Clear
02:00 -8.3 -10.8 82   28 6 24.1 100.85   -12 Mainly Clear
03:00 -9.2 -11.9 81   31 6 24.1 100.90   -13 Clear
04:00 -10.5 -13.9 76   27 6 24.1 100.91   -14 Clear
05:00 -11.2 -13.4 84     0 24.1 100.94     Clear
06:00 -12.6 -15.0 82   28 4 24.1 100.93   -15 Mainly Clear
07:00 -12.6 -15.0 82     0 40.2 101.02     Mainly Clear
08:00 -11.4 -13.6 84     0 40.2 101.11     Mainly Clear
09:00 -8.8 -10.6 87   29 4 40.2 101.16   -11 Mainly Clear
10:00 -5.8 -10.0 72     0 40.2 101.18     Mainly Clear
11:00 -3.7 -9.4 65     0 40.2 101.17     Mainly Clear
12:00 -3.1 -7.8 70   28 4 40.2 101.14   -5 Mainly Clear
13:00 -1.7 -9.2 57   32 4 40.2 101.06   -3 Mainly Clear
14:00 -1.8 -8.9 58     0 40.2 100.96     Mainly Clear
15:00 -1.0 -8.1 59     0 40.2 100.92     Clear
16:00 -1.2 -8.4 58     0 40.2 100.90     Mainly Clear
17:00 -1.9 -8.0 63   10 6 40.2 100.89   -4 Mainly Clear
18:00 -4.2 -9.0 69   9 11 24.1 100.88   -9 Mainly Clear
19:00 -7.0 -9.6 82   10 11 24.1 100.81   -12 Mainly Clear
20:00 -7.4 -9.7 84   12 11 24.1 100.80   -12 Mainly Clear
21:00 -8.6 -10.4 87   10 15 24.1 100.82   -15 Mainly Clear
22:00 -8.5 -9.9 90   10 17 24.1 100.78   -15 Mainly Clear
23:00 -9.2 -10.3 92   12 13 24.1 100.80   -15 Mainly Clear

Notes on Data Quality.

Legend

  • E = Estimated
  • M = Missing
  • NA = Not Available*
  • [empty] = Indicates an unobserved value
Date modified: